Time,TemperatureF,DewpointF,PressureIn,WindDirection,WindDirectionDegrees,WindSpeedMPH,WindSpeedGustMPH,Humidity,HourlyPrecipIn,Conditions,Clouds,dailyrainin,SoftwareType,DateUTC
2013-01-01 00:03:00,41.0,26.0,29.83,SW,226,5.0,14.0,55,0.00,,,0.00,,2013-01-01 05:03:00,
2013-01-01 00:12:00,41.0,26.0,29.83,SW,226,5.0,14.0,55,0.00,,,0.00,,2013-01-01 05:12:00,
2013-01-01 00:22:00,41.0,27.0,29.83,West,279,7.0,15.0,56,0.00,,,0.00,,2013-01-01 05:22:00,
2013-01-01 00:33:00,41.0,27.0,29.82,WNW,296,6.0,12.0,57,0.00,,,0.00,,2013-01-01 05:33:00,
2013-01-01 00:42:00,41.0,27.0,29.82,WNW,296,6.0,12.0,57,0.00,,,0.00,,2013-01-01 05:42:00,
2013-01-01 00:52:00,41.0,27.0,29.82,WNW,296,4.0,14.0,57,0.00,,,0.00,,2013-01-01 05:52:00,
2013-01-01 01:02:00,41.0,27.0,29.80,West,278,5.0,13.0,58,0.00,,,0.00,,2013-01-01 06:02:00,
2013-01-01 01:12:00,41.0,27.0,29.80,West,278,5.0,13.0,58,0.00,,,0.00,,2013-01-01 06:12:00,
2013-01-01 01:22:00,41.0,27.0,29.80,WNW,286,6.0,14.0,58,0.00,,,0.00,,2013-01-01 06:22:00,
2013-01-01 01:32:00,41.0,27.0,29.81,West,274,5.0,12.0,58,0.00,,,0.00,,2013-01-01 06:32:00,
2013-01-01 01:42:00,41.0,27.0,29.81,West,274,5.0,12.0,58,0.00,,,0.00,,2013-01-01 06:42:00,
2013-01-01 01:52:00,41.0,27.0,29.81,WNW,295,7.0,12.0,58,0.00,,,0.00,,2013-01-01 06:52:00,
2013-01-01 02:02:00,42.0,28.0,29.81,WNW,285,5.0,12.0,58,0.00,,,0.00,,2013-01-01 07:02:00,
2013-01-01 02:12:00,41.0,28.0,29.81,WNW,286,7.0,16.0,59,0.00,,,0.00,,2013-01-01 07:12:00,
2013-01-01 02:22:00,41.0,28.0,29.81,WNW,286,7.0,16.0,59,0.00,,,0.00,,2013-01-01 07:22:00,
2013-01-01 02:32:00,41.0,28.0,29.81,WNW,286,5.0,10.0,59,0.00,,,0.00,,2013-01-01 07:32:00,
2013-01-01 02:42:00,41.0,28.0,29.81,WNW,286,5.0,10.0,59,0.00,,,0.00,,2013-01-01 07:42:00,
2013-01-01 02:52:00,41.0,28.0,29.81,WNW,290,3.0,9.0,60,0.00,,,0.00,,2013-01-01 07:52:00,
2013-01-01 03:02:00,41.0,29.0,29.81,WSW,246,4.0,11.0,61,0.00,,,0.00,,2013-01-01 08:02:00,
2013-01-01 03:12:00,41.0,29.0,29.81,WSW,246,4.0,11.0,61,0.00,,,0.00,,2013-01-01 08:12:00,
2013-01-01 03:22:00,41.0,29.0,29.81,WNW,298,6.0,12.0,61,0.00,,,0.00,,2013-01-01 08:22:00,
2013-01-01 03:32:00,41.0,28.0,29.82,West,281,6.0,12.0,60,0.00,,,0.00,,2013-01-01 08:32:00,
2013-01-01 03:42:00,42.0,29.0,29.82,WNW,284,6.0,12.0,60,0.00,,,0.00,,2013-01-01 08:42:00,
2013-01-01 03:53:00,42.0,29.0,29.82,WNW,284,6.0,12.0,60,0.00,,,0.00,,2013-01-01 08:53:00,
2013-01-01 04:02:00,42.0,29.0,29.83,WNW,290,8.0,13.0,59,0.00,,,0.00,,2013-01-01 09:02:00,
2013-01-01 04:12:00,42.0,29.0,29.83,WNW,290,8.0,13.0,59,0.00,,,0.00,,2013-01-01 09:12:00,
2013-01-01 04:22:00,42.0,29.0,29.83,WNW,285,7.0,15.0,59,0.00,,,0.00,,2013-01-01 09:22:00,
2013-01-01 04:32:00,42.0,29.0,29.82,WNW,300,5.0,15.0,60,0.00,,,0.00,,2013-01-01 09:32:00,
2013-01-01 04:42:00,42.0,29.0,29.82,WNW,300,5.0,15.0,60,0.00,,,0.00,,2013-01-01 09:42:00,
2013-01-01 04:52:00,42.0,29.0,29.82,West,275,7.0,12.0,60,0.00,,,0.00,,2013-01-01 09:52:00,
2013-01-01 05:02:00,41.0,28.0,29.82,WSW,254,8.0,15.0,60,0.00,,,0.00,,2013-01-01 10:02:00,
2013-01-01 05:12:00,41.0,29.0,29.82,WNW,294,7.0,17.0,61,0.00,,,0.00,,2013-01-01 10:12:00,
2013-01-01 05:22:00,41.0,29.0,29.82,WNW,294,7.0,17.0,61,0.00,,,0.00,,2013-01-01 10:22:00,
2013-01-01 05:33:00,41.0,29.0,29.80,WNW,294,7.0,18.0,62,0.00,,,0.00,,2013-01-01 10:33:00,
2013-01-01 05:42:00,41.0,29.0,29.80,WNW,294,7.0,18.0,62,0.00,,,0.00,,2013-01-01 10:42:00,
2013-01-01 05:52:00,40.0,28.0,29.80,WNW,296,5.0,10.0,62,0.00,,,0.00,,2013-01-01 10:52:00,
2013-01-01 06:02:00,40.0,28.0,29.80,WNW,288,3.0,10.0,63,0.00,,,0.00,,2013-01-01 11:02:00,
2013-01-01 06:12:00,40.0,28.0,29.80,WNW,288,3.0,10.0,63,0.00,,,0.00,,2013-01-01 11:12:00,
2013-01-01 06:23:00,40.0,29.0,29.80,WNW,286,4.0,7.0,64,0.00,,,0.00,,2013-01-01 11:23:00,
2013-01-01 06:33:00,39.0,28.0,29.82,West,281,4.0,10.0,64,0.00,,,0.00,,2013-01-01 11:33:00,
2013-01-01 06:43:00,39.0,28.0,29.82,West,281,4.0,10.0,64,0.00,,,0.00,,2013-01-01 11:43:00,
2013-01-01 06:53:00,39.0,28.0,29.82,West,279,3.0,6.0,65,0.00,,,0.00,,2013-01-01 11:53:00,
2013-01-01 07:03:00,39.0,28.0,29.83,WSW,254,3.0,8.0,65,0.00,,,0.00,,2013-01-01 12:03:00,
2013-01-01 07:12:00,39.0,28.0,29.83,WSW,254,3.0,8.0,65,0.00,,,0.00,,2013-01-01 12:12:00,
2013-01-01 07:22:00,39.0,28.0,29.83,NW,305,4.0,8.0,65,0.00,,,0.00,,2013-01-01 12:22:00,
2013-01-01 07:33:00,40.0,28.0,29.83,WNW,298,6.0,13.0,63,0.00,,,0.00,,2013-01-01 12:33:00,
2013-01-01 07:43:00,40.0,28.0,29.83,WNW,298,6.0,13.0,63,0.00,,,0.00,,2013-01-01 12:43:00,
2013-01-01 07:52:00,40.0,28.0,29.83,West,277,7.0,13.0,62,0.00,,,0.00,,2013-01-01 12:52:00,
2013-01-01 08:03:00,40.0,28.0,29.83,West,272,5.0,12.0,62,0.00,,,0.00,,2013-01-01 13:03:00,
2013-01-01 08:12:00,40.0,28.0,29.83,West,272,5.0,12.0,62,0.00,,,0.00,,2013-01-01 13:12:00,
2013-01-01 08:22:00,40.0,28.0,29.83,WNW,296,5.0,12.0,62,0.00,,,0.00,,2013-01-01 13:22:00,
2013-01-01 08:33:00,40.0,28.0,29.84,West,277,5.0,9.0,62,0.00,,,0.00,,2013-01-01 13:33:00,
2013-01-01 08:43:00,40.0,28.0,29.84,West,277,5.0,9.0,62,0.00,,,0.00,,2013-01-01 13:43:00,
2013-01-01 08:52:00,40.0,28.0,29.84,West,277,5.0,9.0,62,0.00,,,0.00,,2013-01-01 13:52:00,
2013-01-01 09:02:00,39.0,28.0,29.83,West,275,5.0,9.0,64,0.00,,,0.00,,2013-01-01 14:02:00,
2013-01-01 09:12:00,39.0,28.0,29.83,West,275,5.0,9.0,64,0.00,,,0.00,,2013-01-01 14:12:00,
2013-01-01 09:22:00,39.0,28.0,29.83,WSW,257,5.0,10.0,64,0.00,,,0.00,,2013-01-01 14:22:00,
2013-01-01 09:32:00,40.0,29.0,29.83,WNW,293,5.0,12.0,64,0.00,,,0.00,,2013-01-01 14:32:00,
2013-01-01 09:42:00,40.0,29.0,29.83,WNW,293,5.0,12.0,64,0.00,,,0.00,,2013-01-01 14:42:00,
2013-01-01 09:53:00,40.0,28.0,29.83,WNW,297,6.0,12.0,63,0.00,,,0.00,,2013-01-01 14:53:00,
2013-01-01 10:03:00,40.0,28.0,29.84,WSW,244,7.0,17.0,61,0.00,,,0.00,,2013-01-01 15:03:00,
2013-01-01 10:12:00,40.0,28.0,29.84,WSW,244,7.0,17.0,61,0.00,,,0.00,,2013-01-01 15:12:00,
2013-01-01 10:22:00,40.0,27.0,29.84,WNW,293,7.0,17.0,60,0.00,,,0.00,,2013-01-01 15:22:00,
2013-01-01 10:33:00,41.0,28.0,29.84,West,260,8.0,15.0,59,0.00,,,0.00,,2013-01-01 15:33:00,
2013-01-01 10:42:00,41.0,28.0,29.84,West,260,8.0,15.0,59,0.00,,,0.00,,2013-01-01 15:42:00,
2013-01-01 10:53:00,41.0,28.0,29.84,WNW,293,8.0,15.0,59,0.00,,,0.00,,2013-01-01 15:53:00,
2013-01-01 11:02:00,41.0,28.0,29.84,WNW,293,7.0,18.0,59,0.00,,,0.00,,2013-01-01 16:02:00,
2013-01-01 11:12:00,41.0,28.0,29.84,WNW,293,7.0,18.0,59,0.00,,,0.00,,2013-01-01 16:12:00,
2013-01-01 11:22:00,41.0,27.0,29.84,West,271,6.0,11.0,58,0.00,,,0.00,,2013-01-01 16:22:00,
2013-01-01 11:33:00,41.0,27.0,29.82,West,273,9.0,17.0,58,0.00,,,0.00,,2013-01-01 16:33:00,
2013-01-01 11:43:00,41.0,27.0,29.82,West,273,9.0,17.0,58,0.00,,,0.00,,2013-01-01 16:43:00,
2013-01-01 11:52:00,41.0,27.0,29.82,WNW,294,10.0,17.0,58,0.00,,,0.00,,2013-01-01 16:52:00,
2013-01-01 12:02:00,41.0,27.0,29.80,NW,322,10.0,16.0,58,0.00,,,0.00,,2013-01-01 17:02:00,
2013-01-01 12:12:00,41.0,27.0,29.80,NW,322,10.0,16.0,58,0.00,,,0.00,,2013-01-01 17:12:00,
2013-01-01 12:22:00,41.0,27.0,29.80,West,277,7.0,15.0,58,0.00,,,0.00,,2013-01-01 17:22:00,
2013-01-01 12:33:00,41.0,27.0,29.78,West,269,8.0,15.0,58,0.00,,,0.00,,2013-01-01 17:33:00,
2013-01-01 12:43:00,41.0,27.0,29.78,West,269,8.0,15.0,58,0.00,,,0.00,,2013-01-01 17:43:00,
2013-01-01 12:52:00,41.0,27.0,29.78,WNW,300,10.0,19.0,57,0.00,,,0.00,,2013-01-01 17:52:00,
2013-01-01 13:03:00,41.0,27.0,29.78,WNW,285,10.0,18.0,58,0.00,,,0.00,,2013-01-01 18:03:00,
2013-01-01 13:13:00,41.0,27.0,29.78,WNW,285,10.0,18.0,58,0.00,,,0.00,,2013-01-01 18:13:00,
2013-01-01 13:23:00,41.0,27.0,29.78,NW,304,7.0,19.0,58,0.00,,,0.00,,2013-01-01 18:23:00,
2013-01-01 13:33:00,41.0,27.0,29.78,WNW,296,8.0,17.0,58,0.00,,,0.00,,2013-01-01 18:33:00,
2013-01-01 13:43:00,41.0,27.0,29.78,WNW,296,8.0,17.0,58,0.00,,,0.00,,2013-01-01 18:43:00,
2013-01-01 13:52:00,41.0,27.0,29.78,WNW,296,8.0,17.0,58,0.00,,,0.00,,2013-01-01 18:52:00,
2013-01-01 14:02:00,41.0,28.0,29.77,NW,314,7.0,17.0,59,0.00,,,0.00,,2013-01-01 19:02:00,
2013-01-01 14:12:00,41.0,28.0,29.77,NW,314,7.0,17.0,59,0.00,,,0.00,,2013-01-01 19:12:00,
2013-01-01 14:22:00,41.0,27.0,29.77,WNW,302,7.0,16.0,58,0.00,,,0.00,,2013-01-01 19:22:00,
2013-01-01 14:33:00,41.0,28.0,29.76,NW,306,4.0,16.0,59,0.00,,,0.00,,2013-01-01 19:33:00,
2013-01-01 14:42:00,41.0,28.0,29.76,NW,306,4.0,16.0,59,0.00,,,0.00,,2013-01-01 19:42:00,
2013-01-01 14:52:00,41.0,27.0,29.76,WNW,303,6.0,16.0,58,0.00,,,0.00,,2013-01-01 19:52:00,
2013-01-01 15:02:00,40.0,26.0,29.77,WNW,284,5.0,15.0,58,0.00,,,0.00,,2013-01-01 20:02:00,
2013-01-01 15:13:00,40.0,26.0,29.77,WNW,284,5.0,15.0,58,0.00,,,0.00,,2013-01-01 20:13:00,
2013-01-01 15:23:00,40.0,26.0,29.77,West,279,7.0,16.0,58,0.00,,,0.00,,2013-01-01 20:23:00,
2013-01-01 15:32:00,40.0,27.0,29.78,WNW,300,6.0,14.0,59,0.00,,,0.00,,2013-01-01 20:32:00,
2013-01-01 15:42:00,40.0,27.0,29.78,WNW,300,6.0,14.0,59,0.00,,,0.00,,2013-01-01 20:42:00,
2013-01-01 15:52:00,40.0,27.0,29.78,North,350,4.0,10.0,60,0.00,,,0.00,,2013-01-01 20:52:00,
2013-01-01 16:03:00,38.0,29.0,29.80,NNW,339,7.0,14.0,69,0.00,,,0.00,,2013-01-01 21:03:00,
2013-01-01 16:13:00,38.0,29.0,29.80,NW,314,8.0,15.0,70,0.00,,,0.00,,2013-01-01 21:13:00,
2013-01-01 16:22:00,38.0,29.0,29.80,NW,314,8.0,15.0,70,0.00,,,0.00,,2013-01-01 21:22:00,
2013-01-01 16:33:00,38.0,28.0,29.82,WNW,282,7.0,13.0,66,0.00,,,0.00,,2013-01-01 21:33:00,
2013-01-01 16:42:00,38.0,28.0,29.82,WNW,282,7.0,13.0,66,0.00,,,0.00,,2013-01-01 21:42:00,
2013-01-01 16:52:00,38.0,27.0,29.82,WNW,286,6.0,13.0,65,0.00,,,0.00,,2013-01-01 21:52:00,
2013-01-01 17:03:00,38.0,27.0,29.81,WNW,294,5.0,11.0,63,0.00,,,0.00,,2013-01-01 22:03:00,
2013-01-01 17:12:00,38.0,27.0,29.81,WNW,294,5.0,11.0,63,0.00,,,0.00,,2013-01-01 22:12:00,
2013-01-01 17:22:00,38.0,26.0,29.81,WNW,290,5.0,10.0,62,0.00,,,0.00,,2013-01-01 22:22:00,
2013-01-01 17:33:00,38.0,26.0,29.83,NW,304,7.0,12.0,61,0.00,,,0.00,,2013-01-01 22:33:00,
2013-01-01 17:42:00,38.0,26.0,29.83,NW,304,7.0,12.0,61,0.00,,,0.00,,2013-01-01 22:42:00,
2013-01-01 17:52:00,38.0,26.0,29.83,West,277,4.0,7.0,61,0.00,,,0.00,,2013-01-01 22:52:00,
2013-01-01 18:03:00,38.0,26.0,29.83,WNW,293,7.0,12.0,61,0.00,,,0.00,,2013-01-01 23:03:00,
2013-01-01 18:12:00,38.0,26.0,29.83,WNW,293,7.0,12.0,61,0.00,,,0.00,,2013-01-01 23:12:00,
2013-01-01 18:22:00,38.0,26.0,29.83,West,279,2.0,8.0,62,0.00,,,0.00,,2013-01-01 23:22:00,
2013-01-01 18:32:00,37.0,26.0,29.84,WNW,283,4.0,9.0,63,0.00,,,0.00,,2013-01-01 23:32:00,
2013-01-01 18:42:00,37.0,26.0,29.84,WNW,283,4.0,9.0,63,0.00,,,0.00,,2013-01-01 23:42:00,
2013-01-01 18:52:00,37.0,26.0,29.84,West,274,5.0,9.0,63,0.00,,,0.00,,2013-01-01 23:52:00,
2013-01-01 19:03:00,37.0,26.0,29.86,NW,309,4.0,10.0,64,0.00,,,0.00,,2013-01-02 00:03:00,
2013-01-01 19:12:00,37.0,26.0,29.86,NW,309,4.0,10.0,64,0.00,,,0.00,,2013-01-02 00:12:00,
2013-01-01 19:22:00,37.0,26.0,29.86,NW,310,2.0,8.0,65,0.00,,,0.00,,2013-01-02 00:22:00,
2013-01-01 19:32:00,36.0,21.0,29.87,NNW,332,7.0,12.0,54,0.00,,,0.00,,2013-01-02 00:32:00,
2013-01-01 19:42:00,36.0,21.0,29.87,NNW,332,7.0,12.0,54,0.00,,,0.00,,2013-01-02 00:42:00,
2013-01-01 19:52:00,36.0,20.0,29.87,NW,310,5.0,12.0,52,0.00,,,0.00,,2013-01-02 00:52:00,
2013-01-01 20:02:00,35.0,18.0,29.87,NW,324,4.0,12.0,50,0.00,,,0.00,,2013-01-02 01:02:00,
2013-01-01 20:12:00,35.0,18.0,29.87,NW,324,4.0,12.0,50,0.00,,,0.00,,2013-01-02 01:12:00,
2013-01-01 20:22:00,35.0,18.0,29.87,NNW,329,5.0,10.0,49,0.00,,,0.00,,2013-01-02 01:22:00,
2013-01-01 20:32:00,35.0,17.0,29.88,NW,306,3.0,10.0,47,0.00,,,0.00,,2013-01-02 01:32:00,
2013-01-01 20:42:00,35.0,17.0,29.88,NW,306,3.0,10.0,47,0.00,,,0.00,,2013-01-02 01:42:00,
2013-01-01 20:52:00,34.0,15.0,29.88,NW,315,5.0,9.0,46,0.00,,,0.00,,2013-01-02 01:52:00,
2013-01-01 21:02:00,34.0,16.0,29.89,WNW,290,4.0,9.0,47,0.00,,,0.00,,2013-01-02 02:02:00,
2013-01-01 21:12:00,34.0,16.0,29.89,WNW,290,4.0,9.0,47,0.00,,,0.00,,2013-01-02 02:12:00,
2013-01-01 21:22:00,34.0,16.0,29.89,NW,308,3.0,14.0,48,0.00,,,0.00,,2013-01-02 02:22:00,
2013-01-01 21:32:00,33.0,15.0,29.89,NW,321,3.0,12.0,46,0.00,,,0.00,,2013-01-02 02:32:00,
2013-01-01 21:42:00,33.0,15.0,29.89,NW,321,3.0,12.0,46,0.00,,,0.00,,2013-01-02 02:42:00,
2013-01-01 21:52:00,33.0,14.0,29.89,WNW,302,6.0,12.0,45,0.00,,,0.00,,2013-01-02 02:52:00,
2013-01-01 22:02:00,33.0,15.0,29.89,NW,313,3.0,9.0,46,0.00,,,0.00,,2013-01-02 03:02:00,
2013-01-01 22:12:00,33.0,15.0,29.89,NW,313,3.0,9.0,46,0.00,,,0.00,,2013-01-02 03:12:00,
2013-01-01 22:22:00,33.0,15.0,29.89,NNW,340,4.0,9.0,46,0.00,,,0.00,,2013-01-02 03:22:00,
2013-01-01 22:32:00,33.0,15.0,29.90,North,360,3.0,10.0,48,0.00,,,0.00,,2013-01-02 03:32:00,
2013-01-01 22:42:00,33.0,15.0,29.90,North,360,3.0,10.0,48,0.00,,,0.00,,2013-01-02 03:42:00,
2013-01-01 22:52:00,32.0,16.0,29.90,North,349,6.0,12.0,51,0.00,,,0.00,,2013-01-02 03:52:00,
2013-01-01 23:03:00,32.0,16.0,29.92,NNE,29,6.0,13.0,51,0.00,,,0.00,,2013-01-02 04:03:00,
2013-01-01 23:12:00,32.0,16.0,29.92,NNE,29,6.0,13.0,51,0.00,,,0.00,,2013-01-02 04:12:00,
2013-01-01 23:22:00,31.0,15.0,29.92,WNW,294,5.0,13.0,51,0.00,,,0.00,,2013-01-02 04:22:00,
2013-01-01 23:32:00,31.0,14.0,29.93,NW,322,4.0,10.0,49,0.00,,,0.00,,2013-01-02 04:32:00,
2013-01-01 23:42:00,31.0,14.0,29.93,NW,322,4.0,10.0,49,0.00,,,0.00,,2013-01-02 04:42:00,
2013-01-01 23:52:00,31.0,15.0,29.93,NNW,333,2.0,8.0,51,0.00,,,0.00,,2013-01-02 04:52:00,